Theta_e
335 329 328 327 313 310 306 311 318 317 317 319 320 318 317 318 315 312 335 343 342 336 345 352 355 354 353 351 350 349 348 346 343 341 339 338 337 336 336 336 337 337 337 338 338 338 337 336 336
325 324 326 324 308 306 311 318 316 318 321 323 322 321 318 315 321 324 330 342 342 336 346 346 355 354 353 352 351 350 349 347 345 342 341 340 339 339 338 338 339 340 339 340 340 341 341 340 338
323 327 322 316 312 309 312 318 318 320 321 317 318 319 318 318 324 327 339 344 341 337 343 347 355 354 354 353 351 351 350 349 346 343 342 341 341 341 341 339 340 341 341 341 341 343 343 342 340
324 324 323 312 311 316 318 319 320 320 319 318 318 316 321 325 325 331 339 343 341 338 340 348 355 354 354 353 353 352 351 349 349 345 344 343 343 344 344 341 342 343 343 342 341 343 342 341 343
327 324 311 308 309 314 318 323 324 320 318 318 318 315 318 325 329 332 338 342 339 339 343 344 355 355 355 354 354 353 352 351 350 348 345 345 346 346 346 344 345 345 343 343 343 343 345 343 341
321 320 308 305 308 312 317 319 318 319 319 319 317 317 320 327 328 331 336 340 340 339 343 347 355 355 354 354 353 353 352 352 350 350 349 348 348 348 346 345 344 344 343 343 342 342 342 343 341
317 314 308 309 308 310 314 319 317 317 318 318 321 316 321 324 330 331 335 338 340 339 340 346 351 355 355 354 353 353 352 351 350 350 350 349 349 346 344 343 340 339 339 339 341 341 341 341 340
317 316 310 311 309 310 314 316 318 318 316 322 322 316 318 327 330 332 334 335 338 340 340 342 349 351 349 349 354 353 352 352 351 351 351 350 347 343 339 337 337 335 335 336 337 338 338 340 340
322 311 308 310 310 312 317 315 319 321 319 320 322 321 325 327 329 330 332 334 335 337 341 342 344 349 348 345 349 353 352 352 351 349 349 346 340 339 339 338 332 333 333 333 334 335 336 337 338
317 311 311 316 316 314 317 316 317 316 317 318 320 324 326 327 327 327 328 329 332 335 337 342 347 348 348 342 347 352 347 347 346 343 343 343 340 341 338 337 333 333 333 333 335 336 337 337 337
316 311 316 316 318 318 317 316 319 316 314 317 318 321 324 325 326 326 328 330 330 334 338 341 346 350 348 344 346 347 345 345 344 345 343 342 340 340 338 337 335 336 335 334 334 336 336 336 335
312 316 316 317 317 317 316 318 316 317 317 320 322 323 323 323 324 326 329 330 330 332 336 341 344 349 351 345 345 344 342 343 341 341 343 341 338 339 339 336 335 336 334 333 335 334 335 335 336
311 314 316 317 317 317 317 315 315 316 320 322 322 323 323 323 324 327 331 332 332 331 336 341 344 348 350 349 346 344 341 340 339 337 340 341 338 338 338 336 335 334 335 332 333 334 334 334 334
312 312 313 315 315 316 314 314 316 316 319 320 321 319 320 321 323 325 329 329 332 333 336 341 344 349 350 349 348 344 343 340 338 336 339 341 339 339 337 335 334 333 336 333 332 334 333 332 332
312 308 311 312 314 313 315 311 311 317 318 317 317 318 320 321 323 325 327 329 332 334 337 341 345 348 350 350 347 343 340 338 335 337 342 341 341 340 339 337 336 336 338 339 336 334 333 331 331
307 308 303 311 312 313 312 305 312 316 316 315 316 317 318 320 322 326 328 331 335 336 336 340 341 346 350 349 345 340 337 335 335 338 339 341 342 341 339 337 337 338 338 338 335 332 330 329 329
305 300 304 306 313 309 308 305 312 316 315 314 315 316 317 319 321 326 327 330 333 337 337 337 341 344 348 347 342 340 340 337 337 338 338 340 341 340 339 339 339 339 337 336 333 331 331 330 328
299 301 302 304 309 308 306 306 311 315 314 313 314 315 316 318 319 323 328 330 332 335 337 337 340 344 346 342 339 335 335 336 338 338 338 341 340 339 338 338 337 336 336 334 331 332 332 330 328
303 303 303 306 310 307 306 307 310 313 313 312 314 315 316 318 323 327 328 329 330 332 334 336 338 343 340 335 331 331 330 334 336 337 341 340 340 339 337 337 336 336 333 330 333 332 330 329 331
302 301 302 306 309 308 306 304 309 311 312 313 314 314 316 319 320 325 326 327 330 331 334 336 338 340 338 333 333 332 333 333 336 338 340 340 339 338 336 335 336 335 329 331 332 332 328 331 333
300 300 301 300 304 307 304 301 304 309 311 312 314 316 318 318 319 325 325 327 330 331 333 335 338 338 337 337 336 337 338 338 334 335 336 337 338 337 337 335 335 334 333 333 333 332 328 327 331
297 303 301 300 299 295 304 294 303 307 308 310 312 315 317 318 323 324 326 327 329 331 333 336 337 337 337 339 336 336 329 328 333 336 338 337 336 334 334 336 335 335 336 334 332 332 333 331 329
300 302 301 301 299 299 299 296 300 306 305 308 312 315 318 319 322 324 325 327 329 331 333 335 336 337 337 337 337 334 333 333 335 334 334 336 336 334 332 334 335 334 334 335 333 332 331 333 331
304 301 301 301 299 292 298 297 298 302 306 309 313 314 316 320 322 324 326 327 328 331 332 334 336 335 337 337 337 337 336 334 332 332 331 333 336 336 334 332 334 335 334 333 332 332 332 334 334
301 299 293 291 291 291 300 297 300 307 310 311 311 315 319 322 323 323 324 325 327 329 331 332 333 333 335 335 336 338 337 336 334 333 332 331 329 335 333 334 335 335 336 334 334 333 333 333 334
299 299 293 287 289 293 300 295 300 308 311 314 313 315 318 322 324 324 325 326 327 328 330 330 332 332 333 333 336 338 338 333 333 333 333 333 333 332 334 334 335 335 334 335 335 333 332 333 334
299 296 303 296 298 295 298 302 307 310 310 312 314 315 318 322 323 324 325 326 327 329 330 331 331 331 332 333 337 337 337 335 333 333 336 332 335 331 334 334 335 335 335 335 336 336 334 333 334
302 304 295 297 290 288 294 297 301 306 308 311 312 316 319 322 323 324 325 326 328 330 331 333 332 330 332 335 336 335 336 336 335 334 332 332 333 332 332 333 335 335 336 336 337 336 335 333 334
299 299 300 300 297 291 291 295 305 308 311 312 315 319 320 321 322 323 324 326 328 330 331 332 330 330 331 334 335 335 335 335 334 333 332 333 333 333 331 332 334 333 334 335 333 332 331 331 332
302 300 301 294 293 296 295 294 310 312 313 314 315 319 321 322 322 323 324 326 327 328 329 329 328 329 331 332 333 334 335 335 334 332 332 332 332 332 330 331 332 332 332 335 330 329 328 329 330
Wind_Speed
12 12 6 6 8 6 9 5 2 5 6 3 5 7 6 10 11 8 5 8 8 18 19 22 21 21 20 19 17 16 15 15 13 13 11 10 9 8 7 6 5 5 4 5 5 5 5 6 6
12 10 6 3 9 10 10 8 9 1 5 8 10 13 11 12 4 5 6 12 11 17 18 21 22 21 20 19 17 16 15 14 13 12 12 11 10 10 9 8 9 8 8 8 8 7 7 7 7
13 8 7 6 9 11 4 9 6 1 4 2 4 4 4 2 1 4 7 14 13 16 18 19 24 21 19 18 16 15 14 14 14 13 12 11 11 11 10 11 11 11 11 10 10 10 10 8 8
10 7 6 10 13 11 10 6 1 5 3 1 4 7 3 3 2 4 2 14 12 15 17 17 22 20 19 18 17 16 15 15 14 14 13 13 12 11 11 12 12 13 13 13 13 13 10 9 10
7 6 11 13 17 12 9 12 13 11 4 6 2 3 5 5 3 3 3 11 13 16 16 17 20 20 19 19 18 17 16 15 14 14 14 13 13 13 13 14 14 15 16 15 14 13 11 9 10
9 7 11 13 16 11 11 12 13 14 10 7 7 6 5 4 5 4 4 10 13 14 15 14 19 20 19 19 18 16 15 15 14 14 13 13 13 13 15 13 13 13 14 14 15 14 12 10 8
14 10 15 15 15 13 10 5 12 11 8 9 4 9 4 1 10 7 3 8 14 13 16 14 16 19 18 18 17 16 15 15 14 13 13 13 13 11 8 8 9 11 13 13 13 13 14 11 11
10 10 18 12 14 14 3 6 5 8 7 4 4 8 7 11 8 9 7 8 12 14 15 16 14 17 18 17 15 15 15 14 13 13 13 12 11 9 9 8 12 10 10 11 13 15 15 14 12
15 11 14 19 18 15 9 10 5 3 10 11 12 14 14 15 11 11 10 10 11 14 15 15 15 15 16 16 15 14 15 13 11 12 12 8 10 9 10 4 4 7 9 10 11 11 13 13 15
16 15 23 21 19 18 19 12 13 10 15 21 17 19 15 13 15 14 15 13 12 17 17 17 14 15 15 12 12 14 13 11 11 10 9 9 9 7 6 7 7 9 10 11 12 11 10 11 10
21 26 24 21 23 19 22 20 20 19 18 23 22 21 20 19 17 17 17 16 15 14 15 17 15 15 15 13 10 8 7 7 7 10 8 8 6 6 6 5 5 6 8 7 9 10 10 9 3
31 28 23 24 25 20 21 24 23 23 22 26 24 22 23 23 21 18 17 15 15 13 17 18 17 16 15 10 10 9 8 7 7 8 9 8 6 7 6 6 6 5 6 6 6 6 5 7 9
33 26 25 22 23 22 23 26 29 26 24 26 22 22 20 20 22 20 16 16 14 16 14 19 18 17 15 13 10 10 9 8 7 7 8 8 7 6 6 6 7 7 7 6 7 5 6 7 8
25 25 30 24 24 23 24 26 28 26 21 27 23 22 20 21 20 18 16 17 13 14 14 16 20 17 15 14 12 9 8 8 7 6 6 8 8 6 7 7 8 8 7 7 6 7 6 7 6
24 26 26 20 21 23 20 26 29 23 24 25 21 20 18 17 18 17 15 16 15 11 13 17 18 18 17 16 13 10 9 8 7 6 7 8 8 9 10 8 8 7 6 10 7 8 7 8 7
21 25 26 23 22 18 16 32 23 18 21 17 17 17 17 18 19 18 17 14 14 12 14 17 17 20 19 16 13 9 8 8 7 6 6 8 10 11 9 6 7 8 7 7 7 8 7 7 7
25 25 31 26 22 17 22 34 25 18 15 14 16 19 17 18 20 19 18 17 15 12 14 17 19 19 19 16 12 10 8 7 6 5 6 7 9 11 7 6 7 8 5 7 8 7 7 8 7
26 24 26 28 16 18 23 31 24 22 20 22 20 19 20 19 23 19 16 12 12 8 12 15 16 18 18 13 10 8 8 7 6 5 6 6 8 9 8 7 8 5 7 7 9 6 7 9 6
25 27 30 26 23 26 26 29 28 26 20 23 24 19 21 21 21 16 7 7 6 8 12 14 16 17 14 12 12 10 9 7 6 5 6 7 7 7 8 6 7 7 8 8 6 7 9 8 7
27 29 30 26 22 23 22 26 26 24 23 25 26 24 21 20 18 12 3 6 7 10 12 14 15 17 13 10 8 7 6 5 4 3 4 6 6 8 7 8 8 8 6 10 9 10 7 6 6
31 30 26 26 18 20 22 27 28 27 30 27 24 22 18 20 19 12 6 7 9 12 14 15 17 17 13 12 8 6 5 3 5 6 6 5 7 6 7 7 7 7 6 6 9 8 8 6 8
32 24 22 20 19 21 18 22 24 21 25 24 23 22 22 18 14 8 8 9 10 12 14 16 17 16 12 12 9 8 5 4 1 2 2 4 5 6 5 6 6 7 6 7 5 5 7 7 6
25 14 19 21 19 20 23 17 20 22 22 21 21 21 19 14 7 8 10 11 12 14 15 16 17 15 14 10 9 8 4 4 4 3 4 4 5 5 5 5 5 6 6 5 5 5 6 5 4
18 14 18 16 14 19 20 21 17 20 24 21 13 12 10 8 6 9 11 13 14 15 17 16 16 14 13 11 9 5 5 3 3 4 4 4 3 4 5 5 5 5 4 4 5 5 5 4 5
23 21 11 12 13 12 16 16 21 21 17 14 12 5 8 7 11 14 15 15 17 19 18 16 16 14 13 11 9 7 5 4 4 5 3 1 3 4 5 5 4 4 4 4 4 5 5 5 4
28 25 12 17 12 13 18 10 13 11 14 11 13 10 3 7 11 14 15 16 19 19 18 16 15 14 12 11 9 6 6 4 3 1 2 2 4 5 5 5 4 3 4 5 5 5 6 6 4
32 26 21 10 2 6 8 10 12 20 19 12 5 9 7 10 12 15 16 17 18 17 16 15 15 13 12 11 8 7 6 3 4 4 2 4 5 6 6 4 2 2 2 5 5 4 7 5 4
29 23 21 14 15 13 8 11 8 5 5 9 10 8 11 13 15 16 16 17 16 15 15 14 13 12 11 11 9 8 6 6 5 5 4 5 6 5 5 3 2 3 2 1 2 3 4 4 2
19 23 20 14 10 10 5 5 10 12 4 1 6 9 15 16 17 16 17 16 16 15 14 13 12 12 11 10 9 7 7 6 6 5 5 6 6 6 5 3 1 2 3 4 2 1 4 5 6
23 19 22 14 19 11 5 4 4 1 3 4 3 10 15 17 18 19 18 17 16 16 15 14 11 12 11 10 9 7 6 6 6 6 6 6 6 6 5 4 1 1 5 3 3 4 2 4 5
Wind_Direction
156 172 176 204 234 237 237 204 293 201 195 173 261 240 259 316 306 337 112 178 162 163 162 173 176 175 174 175 175 177 177 177 180 183 187 190 195 202 210 232 240 246 255 261 264 258 241 247 256
159 167 217 238 253 223 191 192 194 148 346 304 261 242 252 264 326 287 225 172 169 160 170 180 179 182 179 176 178 180 184 183 186 192 198 204 213 220 228 232 242 251 254 254 254 257 251 245 244
164 207 243 229 241 252 255 177 134 336 323 318 244 275 316 283 191 319 49 160 162 167 177 185 178 184 181 180 180 182 188 190 194 200 209 218 228 235 238 244 248 253 259 265 266 258 258 252 248
176 196 228 247 235 242 274 164 181 295 152 247 335 264 208 328 343 1 86 169 172 177 183 177 179 184 182 184 184 186 191 196 201 206 214 223 233 243 248 251 251 255 257 261 264 265 269 275 265
219 242 246 238 249 261 259 272 285 273 263 255 317 291 278 95 9 306 191 186 189 184 187 182 179 188 184 186 188 190 196 201 204 211 219 227 232 240 248 256 258 258 260 262 262 265 263 264 270
210 267 238 241 244 232 261 276 265 260 265 245 247 273 282 82 11 27 219 207 209 193 191 190 180 191 187 188 190 192 195 203 207 215 223 232 238 246 250 255 263 268 273 271 269 263 263 271 273
242 222 257 270 278 276 285 274 258 270 249 226 322 277 280 269 12 343 282 236 219 203 195 193 186 196 192 190 190 193 197 203 208 216 225 233 246 255 255 260 267 273 276 276 273 271 264 264 267
235 255 258 260 267 281 311 260 289 241 266 28 272 262 249 350 339 313 286 265 226 212 205 205 197 193 200 192 192 195 199 204 210 218 225 234 240 243 241 256 239 251 275 275 272 268 263 262 263
237 236 247 256 263 265 226 263 131 322 266 267 285 276 304 309 303 288 276 266 249 223 211 209 199 197 200 197 184 195 202 207 210 220 226 220 244 235 236 225 311 274 271 270 269 265 262 265 260
224 229 246 261 274 269 284 245 286 272 270 275 267 264 265 269 272 275 278 276 239 232 217 207 207 204 197 201 191 200 200 208 216 226 232 222 244 257 302 306 274 263 264 264 264 262 278 242 251
233 245 256 249 259 258 279 273 273 276 275 271 288 303 295 294 289 275 267 274 276 227 221 211 193 200 204 199 187 191 195 206 210 227 230 237 258 249 248 262 256 242 213 258 226 217 226 238 273
244 253 253 263 261 257 260 274 280 274 277 277 287 293 291 288 284 281 267 269 275 257 216 205 200 197 202 200 191 192 194 198 213 212 222 236 235 234 251 269 272 248 258 271 251 252 262 273 256
245 252 262 250 265 268 276 271 274 277 279 280 283 284 283 282 280 277 270 270 268 260 231 206 201 198 194 209 189 195 200 194 217 219 213 238 252 252 258 260 263 264 262 245 243 272 272 264 248
249 254 254 263 260 264 266 269 271 268 272 280 281 285 286 284 283 275 272 267 257 255 231 206 201 198 192 193 196 184 193 193 216 221 227 220 250 249 260 242 247 248 254 258 257 231 260 254 264
254 257 260 248 256 254 265 268 257 264 264 270 278 283 281 285 285 274 270 267 267 243 228 203 197 195 191 191 185 192 182 210 210 219 215 234 239 241 253 258 255 255 246 256 251 254 233 249 244
246 239 248 234 235 240 239 260 266 280 272 270 277 281 291 287 283 284 275 274 257 246 209 193 194 190 187 181 181 191 185 202 208 212 228 226 240 247 252 249 247 254 245 243 239 235 249 237 241
231 239 238 242 242 245 226 258 254 261 267 264 277 284 287 289 287 277 278 270 263 239 207 187 196 186 182 171 170 182 180 209 204 217 238 243 246 247 243 239 243 242 239 233 239 227 233 248 245
228 228 241 259 228 225 242 250 259 263 266 278 276 284 284 286 282 283 278 278 260 216 187 192 185 181 174 159 160 174 180 201 208 223 243 258 247 248 240 238 243 231 230 239 236 230 238 254 258
250 250 247 244 234 246 252 262 274 275 279 269 274 279 279 284 286 282 285 273 205 181 180 192 181 169 166 161 167 175 194 198 209 226 237 248 252 247 235 235 237 228 231 245 220 237 234 240 219
235 240 247 258 261 267 278 276 273 273 274 276 274 270 272 270 282 278 256 217 182 169 176 170 168 164 164 160 170 185 195 195 217 213 234 249 242 242 236 232 228 222 221 229 230 233 242 216 206
226 235 244 257 273 261 255 266 270 264 259 261 262 258 257 263 277 268 207 193 169 163 164 164 159 160 161 149 146 153 146 178 207 202 220 208 234 236 233 224 228 218 231 233 232 234 231 232 203
231 224 246 255 254 256 251 275 273 281 276 268 266 263 264 265 258 228 183 175 168 154 157 156 154 155 151 165 164 174 194 224 107 245 187 222 223 222 228 230 210 213 221 230 231 219 224 203 191
233 232 235 238 251 267 258 261 274 262 267 259 257 255 249 243 248 188 173 160 151 148 150 151 151 156 151 158 165 168 206 161 185 194 194 245 195 209 203 200 212 221 227 222 216 182 189 215 207
219 213 224 235 245 248 250 250 266 265 261 267 267 246 216 168 167 146 139 143 144 146 147 149 150 146 154 160 153 172 152 192 213 209 228 214 172 217 201 196 210 220 219 200 198 192 205 203 214
192 190 192 213 218 245 247 241 249 278 282 262 259 207 142 156 154 147 149 148 149 151 150 149 149 150 156 157 163 161 158 169 202 228 247 183 203 204 160 188 211 219 221 188 195 196 202 210 216
192 188 207 216 227 240 214 240 242 276 273 276 242 225 140 156 143 142 146 146 149 151 152 149 150 153 160 163 165 154 152 173 194 181 327 162 159 184 158 182 199 175 182 179 186 200 215 204 213
187 208 211 244 194 264 209 235 266 259 258 256 228 211 178 155 148 142 144 148 150 151 152 150 152 155 161 167 159 161 156 164 83 92 179 152 152 132 177 178 139 137 129 183 181 207 202 190 189
194 191 200 212 224 233 234 250 257 302 195 226 233 192 161 150 145 143 148 150 148 150 148 151 154 156 164 163 165 163 160 151 125 130 128 147 147 155 166 167 90 86 104 156 149 188 193 185 162
190 195 209 198 239 196 233 220 258 256 299 162 161 154 156 153 148 149 152 149 150 149 149 154 157 162 166 168 167 159 160 148 138 136 143 152 163 170 170 165 168 78 110 90 139 147 209 182 153
203 188 194 198 190 235 270 274 160 46 277 338 201 145 151 152 151 151 152 154 152 153 155 157 161 166 168 168 167 165 156 164 146 143 145 159 174 182 163 154 167 147 85 98 77 95 123 131 136